This demonstration page uses our WeatherBlox Daily Observations layout. Learn more.

38.89511, -77.03637

Hourly Observations for September 8, 2015

Temp ( °F °C ) Dew Point ( °F °C ) Humidity (%) Winds ( mph kmh ) Pressure ( in mb ) Visibility ( mi km ) Precip ( " mm )
12:52 am 00:52 Mostly Clear 75 24 70 21 83 83 S 9 15 30.09 1019 10 16.09344 0 0
1:52 am 01:52 Mostly Clear 75 24 70 21 83 83 S 9 15 30.09 1019 10 16.09344 0 0
2:52 am 02:52 Clear 73 23 68 20 83 83 S 8 13 30.06 1018 10 16.09344 0 0
3:52 am 03:52 Mostly Clear 73 23 68 20 83 83 SSW 5 7 30.06 1018 10 16.09344 0 0
4:52 am 04:52 Partly Cloudy 73 23 68 20 83 83 SSW 6 9 30.06 1018 10 16.09344 0 0
5:52 am 05:52 Mostly Clear 73 23 70 21 89 89 SSW 6 9 30.06 1018 10 16.09344 0 0
6:52 am 06:52 Mostly Sunny 72 22 70 21 94 94 SSW 5 7 30.06 1018 10 16.09344 0 0
7:52 am 07:52 Mostly Sunny 75 24 70 21 83 83 SSW 3 6 30.09 1019 10 16.09344 0 0
8:52 am 08:52 Sunny 79 26 72 22 79 79 S 5 7 30.06 1018 10 16.09344 0 0
9:52 am 09:52 Sunny 81 27 72 22 74 74 SSE 7 11 30.06 1018 10 16.09344 0 0
10:52 am 10:52 Mostly Sunny 84 29 72 22 66 66 S 9 15 30.06 1018 10 16.09344 0 0
11:52 am 11:52 Mostly Sunny 88 31 70 21 55 55 S 13 20 30.06 1018 10 16.09344 0 0
12:52 pm 12:52 Partly Cloudy 90 32 70 21 52 52 S 10 17 30.03 1017 10 16.09344 0 0
1:52 pm 13:52 Partly Cloudy 91 33 70 21 49 49 S 12 19 30.03 1017 10 16.09344 0 0
2:52 pm 14:52 Mostly Sunny 91 33 68 20 46 46 S 12 19 30 1016 10 16.09344 0 0
3:52 pm 15:52 Partly Cloudy 91 33 66 19 44 44 SSE 8 13 29.97 1015 10 16.09344 0 0
4:52 pm 16:52 Mostly Cloudy 91 33 68 20 46 46 S 12 19 29.97 1015 10 16.09344 0 0
5:52 pm 17:52 Partly Cloudy 90 32 70 21 52 52 S 12 19 29.97 1015 10 16.09344 0 0
6:52 pm 18:52 Mostly Sunny 88 31 70 21 55 55 S 10 17 29.94 1014 10 16.09344 0 0
7:52 pm 19:52 Clear 84 29 70 21 62 62 S 8 13 29.94 1014 10 16.09344 0 0
8:52 pm 20:52 Clear 82 28 72 22 70 70 SSE 9 15 29.97 1015 10 16.09344 0 0
9:52 pm 21:52 Clear 81 27 72 22 74 74 S 12 19 30 1016 10 16.09344 0 0
10:52 pm 22:52 Clear 81 27 72 22 74 74 SSW 10 17 30 1016 10 16.09344 0 0
11:52 pm 23:52 Clear 79 26 72 22 79 79 S 13 20 30 1016 10 16.09344 0 0

Powered by AerisWeather